Regional Weather Roundup
Issued by NWS Albany, NY

Home | Current Version | Previous Version | Graphics & Text | Print | Product List | Glossary Off
Versions: 1 2 3 4 5 6 7 8 9 10 11 12 13 14 15 16 17 18 19 20 21 22 23 24 25 26 27

000
ASUS41 KALY 240810
RWRALY

NEW YORK STATE HOURLY WEATHER ROUNDUP
NATIONAL WEATHER SERVICE ALBANY NY
400 AM EDT MON APR 24 2017

NOTE: "FAIR" INDICATES FEW OR NO CLOUDS BELOW 12,000 FEET WITH NO
SIGNIFICANT WEATHER AND/OR NO OBSTRUCTIONS TO VISIBILITY.

NYZ032-033-038>043-046>054-057>066-NYZ062>081-082-084-240900-
EAST


CITY           SKY/WX    TMP DP  RH WIND       PRES   REMARKS
ALBANY         PTCLDY    44  36  73 CALM      30.09S
GLENS FALLS    CLEAR     36  31  82 CALM      30.08R
POUGHKEEPSIE   MOCLDY    42  39  89 CALM      30.09S
NEWBURGH       CLEAR     43  41  93 CALM      30.10S
MONTGOMERY     CLOUDY    40  38  93 SW5       30.09R
WHITE PLAINS   CLEAR     41  38  89 NW5       30.11R
ISLIP          CLEAR     39  38  96 CALM      30.12R
NEW YORK CITY  MOCLDY    50  42  74 CALM      30.11R
CENTRAL PARK   CLEAR     49  41  74 N3        30.13S
$$

NYZ005>009-017-018-044>046-055-056-240900-
CENTRAL


CITY           SKY/WX    TMP DP  RH WIND       PRES   REMARKS
FULTON         CLEAR     43  36  76 NE3       30.08S
SYRACUSE       CLEAR     40  38  93 E3        30.08S
ROME           CLEAR     36  34  92 E3        30.10S
ELMIRA         CLEAR     36  32  85 CALM      30.09R
BINGHAMTON     CLEAR     47  31  53 CALM      30.07S
MONTICELLO     CLEAR     43  37  81 CALM      30.10S
$$

NYZ026>034-041>043-087-240900-
NORTH


CITY           SKY/WX    TMP DP  RH WIND       PRES   REMARKS
WATERTOWN      CLEAR     40  36  86 NE10      30.13R WCI  33
FORT DRUM      NOT AVBL
OGDENSBURG     FAIR      38  31  74 N6        30.17R WCI  34
MASSENA        CLOUDY    40  29  64 N8        30.18R WCI  34
SARANAC LAKE   CLEAR     28  27  96 CALM      30.08R
PLATTSBURGH    PTCLDY    43  33  68 N10       30.13R
$$

NYZ001>004-010>016-019>021-085-240900-
WEST


CITY           SKY/WX    TMP DP  RH WIND       PRES   REMARKS
NIAGARA FALLS  CLEAR     40  31  70 N5        30.08R
BUFFALO        CLEAR     41  30  65 E5        30.08S
DUNKIRK        CLEAR     34  31  88 SE3       30.07F
JAMESTOWN      CLEAR     48  18  29 CALM      30.07S
WELLSVILLE     CLEAR     42  29  59 CALM      30.09S
ROCHESTER      CLEAR     44  32  62 N6        30.10R
PENN YAN       CLEAR     42  35  76 NW3       30.09R
$$

             KEY
       WCI = WIND CHILL INDEX
       VSB = VISIBILITY
       HX  = HEAT INDEX
$$




USA.gov is the U.S. government's official web portal to all federal, state and local government web resources and services.